USA 176 (DSP 22)

Last updated on Thu Mar 05 2026 00:02:55 GMT+0000 (Coordinated Universal Time)

1 28158U 04004A 26062.92392977 -.00000168 00000+0 00000+0 0 9990 2 28158 11.9199 26.8377 0002644 275.5176 95.5102 1.00272659 31882
UTC large
Height (km)
Speed (km/s)
/
Latitude / Longitude
Inclination (degrees)
Orbital Period (minutes)
Azimuth
Elevation
Range (km)
Doppler Factor

Next 0 passes for location: London (51.5072 / 0.1276)

Sorry there are no passes over London.